Location: Araquey
(29.9464°N, 81.3373°W)
Time: 11:14:06
(UTC+00:00)

Tiangong - Visible Passes

Search period start: 18 September 2021 00:00
Search period end: 28 September 2021 00:00
Orbit: 381 x 386 km, 41.5° (Epoch: 18 September)

Date Brightness Start Highest point End Pass type
(mag) Time Alt. Az. Time Alt. Az. Time Alt. Az.
21 Sep 4.1 10:20:03 10° SSE 10:21:15 12° SE 10:22:27 10° ESE visible
23 Sep 3.0 09:58:46 17° S 10:00:25 26° SE 10:03:08 10° E visible
24 Sep 4.5 09:03:45 10° ESE 09:03:45 10° ESE 09:03:50 10° ESE visible
24 Sep 1.2 10:36:05 12° WSW 10:38:55 63° NNW 10:42:07 10° NE visible
25 Sep 1.6 09:41:16 58° ESE 09:41:16 58° ESE 09:44:08 10° ENE visible
26 Sep 2.2 10:19:01 22° WNW 10:20:20 31° NNW 10:23:15 10° NE visible
27 Sep 3.3 09:24:37 24° NE 09:24:37 24° NE 09:26:04 10° NE visible
